Flag for U.S.A. Weather past 2 weeks in Dallas, Texas, U.S.A.

Now
81 °F

Clear.


Feels Like: 83 °F
Forecast: 78 / 98 °F
Wind: 6 mph from Southwest

Location: Dallas Love Field

Current Time: Aug 23, 2014 at 9:01:14 AM

Latest Report: Aug 23, 2014 at 7:53 AM


Visibility: 10 mi

Pressure: 29.97 "Hg

Humidity: 62%

Dew point: 67 °F

Location of DallasLocation

Historic Weather in Dallas — Graph

°F

Dallas temperature yesterday

Maximum temperature yesterday: 100 °F (at 4:53 PM)
Minimum temperature yesterday: 80 °F (at 5:53 AM)
Average temperature yesterday: 89 °F

Past Weeks' High & Low Weather Summary

 TemperatureHumidityPressure
High103 °F (Aug 8, 3:53 PM)91% (Aug 17, 7:59 AM)30.09 "Hg (Aug 17, 7:59 AM)
Low70 °F (Aug 13, 6:53 AM)26% (Aug 12, 6:53 PM)29.81 "Hg (Aug 8, 5:53 PM)
Average86 °F55%29.94 "Hg
* Reported Aug 8 7:53 AM — Aug 23 7:53 AM, Dallas, Weather by CustomWeather, © 2014

Note: Actual official high and low records may vary slightly from our data, if they occured in-between our weather recording intervals... More about our weather records

Advertising

Dallas weather history for previous 24 hours

 ConditionsComfort  
Time TempWeatherWind HumidityBarometerVisibility
7:53 AM
Aug 23
81 °FClear.6 mph62%29.97 "Hg10 mi
6:53 AM80 °FClear.7 mph64%29.96 "Hg10 mi
5:53 AM81 °FClear.7 mph62%29.95 "Hg10 mi
4:53 AM82 °FClear.8 mph60%29.94 "Hg10 mi
3:53 AM83 °FClear.10 mph61%29.94 "Hg10 mi
2:53 AM84 °FClear.12 mph59%29.94 "Hg10 mi
1:53 AM86 °FClear.14 mph55%29.94 "Hg10 mi
12:53 AM86 °FClear.16 mph55%29.93 "Hg10 mi
11:53 PM
Aug 22
88 °FClear.17 mph52%29.93 "Hg10 mi
10:53 PM89 °FClear.15 mph50%29.93 "Hg10 mi
9:53 PM91 °FClear.16 mph49%29.93 "Hg10 mi
8:53 PM94 °FSunny.17 mph35%29.91 "Hg10 mi
7:53 PM95 °FSunny.12 mph30%29.90 "Hg10 mi
6:53 PM98 °FSunny.15 mph27%29.90 "Hg10 mi
5:53 PM99 °FSunny.10 mph27%29.91 "Hg10 mi
4:53 PM100 °FSunny.13 mph27%29.93 "Hg10 mi
3:53 PM98 °FSunny.7 mph29%29.94 "Hg10 mi
2:53 PM97 °FPassing clouds.12 mph35%29.96 "Hg10 mi
1:53 PM93 °FPassing clouds.10 mph40%29.98 "Hg10 mi
12:53 PM93 °FPassing clouds.12 mph40%30.00 "Hg10 mi
11:53 AM91 °FPassing clouds.12 mph47%30.02 "Hg10 mi
10:53 AM88 °FSunny.10 mph57%30.02 "Hg10 mi
9:53 AM84 °FSunny.13 mph67%30.02 "Hg10 mi
Weather by CustomWeather, © 2014

See weather overviewHow to use our weather pages